| time (UTC) | temp F | wind direction | speed MPH | gust MPH | rain 1hr in | rain 24hr in | rain mn in | humidity % | barometer mb |
| 20260509150038 | 55 | 79 | 3.0 | 6.0 | 0.00 | 0.00 | 0.00 | 47 | 1016.8 |
| 20260509144536 | 54 | 77 | 2.0 | 7.0 | 0.00 | 0.00 | 0.00 | 48 | 1016.6 |
| 20260509143037 | 53 | 67 | 2.0 | 5.0 | 0.00 | 0.00 | 0.00 | 49 | 1016.4 |
| 20260509141541 | 52 | 70 | 3.0 | 7.0 | 0.00 | 0.00 | 0.00 | 50 | 1016.3 |
| 20260509140052 | 52 | 75 | 2.0 | 8.0 | 0.00 | 0.00 | 0.00 | 51 | 1016.4 |
| 20260509134534 | 51 | 103 | 3.0 | 6.0 | 0.00 | 0.00 | 0.00 | 52 | 1016.2 |
| 20260509133039 | 51 | 66 | 2.0 | 6.0 | 0.00 | 0.00 | 0.00 | 52 | 1016.2 |
| 20260509131537 | 51 | 64 | 4.0 | 8.0 | 0.00 | 0.00 | 0.00 | 53 | 1016.0 |
| 20260509130037 | 50 | 56 | 3.0 | 6.0 | 0.00 | 0.00 | 0.00 | 53 | 1015.9 |
| 20260509124539 | 50 | 72 | 4.0 | 7.0 | 0.00 | 0.00 | 0.00 | 53 | 1015.7 |
| 20260509123037 | 50 | 75 | 4.0 | 6.0 | 0.00 | 0.00 | 0.00 | 53 | 1015.5 |
| 20260509121535 | 50 | 56 | 2.0 | 5.0 | 0.00 | 0.00 | 0.00 | 54 | 1015.1 |
| 20260509120039 | 50 | 0 | 0.0 | 2.0 | 0.00 | 0.00 | 0.00 | 54 | 1015.0 |
| 20260509114537 | 50 | 198 | 0.0 | 3.0 | 0.00 | 0.00 | 0.00 | 54 | 1015.0 |
| 20260509113037 | 50 | 189 | 2.0 | 6.0 | 0.00 | 0.00 | 0.00 | 53 | 1014.6 |
| 20260509111536 | 51 | 304 | 2.0 | 6.0 | 0.00 | 0.00 | 0.00 | 52 | 1014.5 |
| 20260509110040 | 51 | 26 | 1.0 | 3.0 | 0.00 | 0.00 | 0.00 | 52 | 1014.1 |
| 20260509104538 | 51 | 26 | 2.0 | 4.0 | 0.00 | 0.00 | 0.00 | 50 | 1014.1 |
| 20260509103045 | 52 | 0 | 0.0 | 3.0 | 0.00 | 0.00 | 0.00 | 50 | 1014.1 |
| 20260509101539 | 53 | 0 | 0.0 | 2.0 | 0.00 | 0.00 | 0.00 | 49 | 1013.9 |
| 20260509100037 | 53 | 0 | 0.0 | 2.0 | 0.00 | 0.00 | 0.00 | 49 | 1013.8 |
| 20260509094543 | 53 | 349 | 3.0 | 7.0 | 0.00 | 0.00 | 0.00 | 49 | 1013.7 |
| 20260509093040 | 53 | 351 | 4.0 | 8.0 | 0.00 | 0.00 | 0.00 | 49 | 1013.5 |
| 20260509091547 | 53 | 345 | 4.0 | 7.0 | 0.00 | 0.00 | 0.00 | 49 | 1013.4 |
| 20260509090050 | 53 | 345 | 4.0 | 7.0 | 0.00 | 0.00 | 0.00 | 49 | 1013.3 |
| 20260509084537 | 53 | 358 | 4.0 | 8.0 | 0.00 | 0.00 | 0.00 | 49 | 1013.0 |
| 20260509083040 | 52 | 354 | 5.0 | 9.0 | 0.00 | 0.00 | 0.00 | 50 | 1013.0 |
| 20260509081537 | 52 | 341 | 4.0 | 7.0 | 0.00 | 0.00 | 0.00 | 50 | 1012.9 |
| 20260509080046 | 53 | 8 | 2.0 | 3.0 | 0.00 | 0.00 | 0.00 | 47 | 1013.0 |
| 20260509074551 | 54 | 8 | 0.0 | 2.0 | 0.00 | 0.00 | 0.00 | 47 | 1013.0 |
| 20260509073057 | 54 | 0 | 0.0 | 1.0 | 0.00 | 0.00 | 0.00 | 46 | 1012.9 |
| 20260509071542 | 54 | 8 | 2.0 | 4.0 | 0.00 | 0.00 | 0.00 | 46 | 1012.7 |
| 20260509070044 | 54 | 296 | 2.0 | 5.0 | 0.00 | 0.00 | 0.00 | 46 | 1012.7 |
| 20260509064539 | 55 | 274 | 4.0 | 5.0 | 0.00 | 0.00 | 0.00 | 45 | 1012.5 |
| 20260509063053 | 55 | 17 | 5.0 | 10.0 | 0.00 | 0.00 | 0.00 | 45 | 1012.3 |
| 20260509061539 | 55 | 26 | 7.0 | 12.0 | 0.00 | 0.00 | 0.00 | 44 | 1012.2 |
| 20260509060054 | 56 | 36 | 10.0 | 12.0 | 0.00 | 0.00 | 0.00 | 43 | 1012.2 |
| 20260509054537 | 56 | 35 | 9.0 | 12.0 | 0.00 | 0.00 | 0.00 | 42 | 1012.1 |
| 20260509053049 | 56 | 27 | 8.0 | 13.0 | 0.00 | 0.00 | 0.00 | 41 | 1011.8 |
| 20260509051538 | 57 | 21 | 7.0 | 11.0 | 0.00 | 0.00 | 0.00 | 39 | 1011.6 |
| 20260509050039 | 58 | 40 | 8.0 | 13.0 | 0.00 | 0.00 | 0.00 | 37 | 1011.6 |
| 20260509044537 | 59 | 28 | 8.0 | 14.0 | 0.00 | 0.00 | 0.00 | 33 | 1011.4 |
| 20260509043045 | 60 | 26 | 10.0 | 17.0 | 0.00 | 0.00 | 0.00 | 31 | 1011.2 |
| 20260509041539 | 60 | 16 | 6.0 | 11.0 | 0.00 | 0.00 | 0.00 | 30 | 1010.9 |
| 20260509040050 | 60 | 356 | 6.0 | 9.0 | 0.00 | 0.00 | 0.00 | 30 | 1010.5 |
| 20260509034537 | 60 | 6 | 6.0 | 11.0 | 0.00 | 0.00 | 0.00 | 28 | 1010.3 |
| 20260509033054 | 61 | 341 | 8.0 | 12.0 | 0.00 | 0.00 | 0.00 | 28 | 1010.0 |
| 20260509031543 | 62 | 6 | 9.0 | 14.0 | 0.00 | 0.00 | 0.00 | 27 | 1009.8 |
| 20260509030038 | 62 | 356 | 7.0 | 10.0 | 0.00 | 0.00 | 0.00 | 27 | 1009.5 |
| 20260509024536 | 63 | 351 | 7.0 | 10.0 | 0.00 | 0.00 | 0.00 | 26 | 1009.4 |
| 20260509023037 | 64 | 356 | 7.0 | 10.0 | 0.00 | 0.00 | 0.00 | 25 | 1009.3 |
| 20260509021537 | 66 | 346 | 7.0 | 12.0 | 0.00 | 0.00 | 0.00 | 23 | 1009.1 |
| 20260509020041 | 66 | 13 | 9.0 | 14.0 | 0.00 | 0.00 | 0.00 | 22 | 1009.1 |
| 20260509014541 | 67 | 345 | 10.0 | 16.0 | 0.00 | 0.00 | 0.00 | 21 | 1009.0 |
| 20260509013041 | 68 | 332 | 14.0 | 19.0 | 0.00 | 0.00 | 0.00 | 20 | 1008.9 |
| 20260509011544 | 68 | 8 | 11.0 | 19.0 | 0.00 | 0.00 | 0.00 | 21 | 1008.9 |
| 20260509010039 | 69 | 335 | 12.0 | 20.0 | 0.00 | 0.00 | 0.00 | 21 | 1008.9 |
| 20260509004538 | 69 | 346 | 16.0 | 21.0 | 0.00 | 0.00 | 0.00 | 20 | 1008.9 |
| 20260509003043 | 70 | 347 | 13.0 | 20.0 | 0.00 | 0.00 | 0.00 | 21 | 1008.9 |
| 20260509001541 | 70 | 321 | 12.0 | 23.0 | 0.00 | 0.00 | 0.00 | 20 | 1008.7 |
| 20260509000038 | 70 | 304 | 18.0 | 29.0 | 0.00 | 0.00 | 0.00 | 19 | 1008.7 |
| 20260508234537 | 71 | 302 | 16.0 | 27.0 | 0.00 | 0.00 | 0.00 | 19 | 1008.7 |
| 20260508233038 | 71 | 315 | 19.0 | 31.0 | 0.00 | 0.00 | 0.00 | 17 | 1008.6 |
| 20260508231535 | 72 | 310 | 18.0 | 31.0 | 0.00 | 0.00 | 0.00 | 18 | 1008.5 |
| 20260508230041 | 72 | 279 | 20.0 | 27.0 | 0.00 | 0.00 | 0.00 | 17 | 1008.7 |
| 20260508224545 | 72 | 293 | 21.0 | 32.0 | 0.00 | 0.00 | 0.00 | 16 | 1008.7 |
| 20260508223038 | 72 | 295 | 19.0 | 30.0 | 0.00 | 0.00 | 0.00 | 16 | 1008.7 |
| 20260508221538 | 72 | 337 | 22.0 | 33.0 | 0.00 | 0.00 | 0.00 | 15 | 1008.5 |
| 20260508220039 | 72 | 325 | 22.0 | 33.0 | 0.00 | 0.00 | 0.00 | 16 | 1008.6 |
| 20260508214543 | 72 | 304 | 21.0 | 29.0 | 0.00 | 0.00 | 0.00 | 16 | 1008.9 |
| 20260508213038 | 72 | 285 | 18.0 | 29.0 | 0.00 | 0.00 | 0.00 | 18 | 1009.0 |
| 20260508211534 | 72 | 283 | 18.0 | 31.0 | 0.00 | 0.00 | 0.00 | 19 | 1009.0 |
| 20260508210037 | 72 | 262 | 16.0 | 39.0 | 0.00 | 0.00 | 0.00 | 18 | 1009.0 |
| 20260508204538 | 71 | 269 | 20.0 | 28.0 | 0.00 | 0.00 | 0.00 | 18 | 1008.9 |
| 20260508203040 | 71 | 266 | 17.0 | 29.0 | 0.00 | 0.00 | 0.00 | 15 | 1009.1 |
| 20260508201537 | 71 | 294 | 15.0 | 27.0 | 0.00 | 0.00 | 0.00 | 18 | 1009.1 |
| 20260508200037 | 72 | 281 | 22.0 | 29.0 | 0.00 | 0.00 | 0.00 | 19 | 1009.1 |
| 20260508194548 | 71 | 268 | 18.0 | 28.0 | 0.00 | 0.00 | 0.00 | 18 | 1009.3 |
| 20260508193039 | 71 | 303 | 17.0 | 32.0 | 0.00 | 0.00 | 0.00 | 19 | 1009.3 |
| 20260508191546 | 70 | 266 | 17.0 | 23.0 | 0.00 | 0.00 | 0.00 | 20 | 1009.1 |
| 20260508190053 | 70 | 233 | 12.0 | 27.0 | 0.00 | 0.00 | 0.00 | 23 | 1009.6 |
| 20260508184540 | 70 | 291 | 17.0 | 31.0 | 0.00 | 0.00 | 0.00 | 25 | 1009.8 |
| 20260508183042 | 69 | 223 | 15.0 | 23.0 | 0.00 | 0.00 | 0.00 | 26 | 1010.0 |
| 20260508181544 | 68 | 329 | 13.0 | 22.0 | 0.00 | 0.00 | 0.00 | 27 | 1010.2 |
| 20260508180036 | 68 | 257 | 16.0 | 22.0 | 0.00 | 0.00 | 0.00 | 27 | 1010.4 |
| 20260508174541 | 67 | 238 | 12.0 | 19.0 | 0.00 | 0.00 | 0.00 | 29 | 1010.4 |
| 20260508173034 | 67 | 250 | 13.0 | 19.0 | 0.00 | 0.00 | 0.00 | 32 | 1010.7 |
| 20260508171541 | 66 | 279 | 8.0 | 17.0 | 0.00 | 0.00 | 0.00 | 35 | 1010.7 |
| 20260508170036 | 65 | 206 | 9.0 | 17.0 | 0.00 | 0.00 | 0.00 | 38 | 1011.1 |
| 20260508164536 | 64 | 258 | 9.0 | 18.0 | 0.00 | 0.00 | 0.00 | 41 | 1011.2 |
| 20260508163055 | 63 | 243 | 9.0 | 16.0 | 0.00 | 0.00 | 0.00 | 44 | 1011.4 |
| 20260508161551 | 62 | 225 | 8.0 | 19.0 | 0.00 | 0.00 | 0.00 | 47 | 1011.5 |
| 20260508160036 | 61 | 189 | 9.0 | 14.0 | 0.00 | 0.00 | 0.00 | 49 | 1011.7 |
| 20260508154538 | 60 | 240 | 8.0 | 15.0 | 0.00 | 0.00 | 0.00 | 51 | 1011.8 |
| 20260508153053 | 59 | 216 | 7.0 | 16.0 | 0.00 | 0.00 | 0.00 | 53 | 1012.0 |
| 20260508151537 | 58 | 198 | 8.0 | 13.0 | 0.00 | 0.00 | 0.00 | 56 | 1012.0 |